KJ6HT Weather Reports


Display with metric or nautical units.
time (UTC)temp
F
wind
direction
speed
MPH
gust
MPH
rain 1hr
in
rain 24hr
in
rain mn
in
humidity
%
barometer
mb
20260906064554 76 301 0.0 1.0 0.00 0.00 0.00 39 1011.3
20260906063055 77 321 1.0 2.0 0.00 0.00 0.00 37 1011.2
20260906061552 77 79 0.0 1.0 0.00 0.00 0.00 36 1011.3
20260906060050 79 316 0.0 1.0 0.00 0.00 0.00 33 1011.4
20260906054549 79 239 0.0 5.0 0.00 0.00 0.00 34 1011.4
20260906053101 79 155 1.0 4.0 0.00 0.00 0.00 31 1011.4
20260906051548 81 120 0.0 2.0 0.00 0.00 0.00 30 1011.3
20260906050053 79 288 0.0 2.0 0.00 0.00 0.00 31 1011.4
20260906044547 82 129 0.0 2.0 0.00 0.00 0.00 29 1011.4
20260906043051 81 99 0.0 1.0 0.00 0.00 0.00 30 1011.4
20260906041547 84 124 1.0 2.0 0.00 0.00 0.00 27 1011.3
20260906040045 83 51 0.0 2.0 0.00 0.00 0.00 28 1011.1
20260906034544 82 278 2.0 8.0 0.00 0.00 0.00 29 1011.0
20260906033057 82 349 2.0 7.0 0.00 0.00 0.00 28 1010.9
20260906031542 82 235 4.0 10.0 0.00 0.00 0.00 29 1010.7
20260906030045 83 292 6.0 9.0 0.00 0.00 0.00 30 1010.5
20260906024546 83 297 4.0 8.0 0.00 0.00 0.00 30 1010.4
20260906023050 84 255 6.0 11.0 0.00 0.00 0.00 30 1010.5
20260906021540 85 291 4.0 10.0 0.00 0.00 0.00 30 1010.4
20260906020052 86 347 4.0 11.0 0.00 0.00 0.00 30 1010.3
20260906014539 86 280 2.0 9.0 0.00 0.00 0.00 30 1010.1
20260906013048 87 266 3.0 8.0 0.00 0.00 0.00 31 1010.2
20260906011549 87 243 3.0 10.0 0.00 0.00 0.00 30 1010.2
20260906010040 87 290 6.0 12.0 0.00 0.00 0.00 31 1010.3
20260906004536 89 267 3.0 8.0 0.00 0.00 0.00 31 1010.2
20260906003037 89 256 2.0 10.0 0.00 0.00 0.00 31 1010.2
20260906001536 90 263 2.0 11.0 0.00 0.00 0.00 32 1010.0
20260906000049 91 304 3.0 8.0 0.00 0.00 0.00 31 1010.0
20260905234532 92 262 5.0 15.0 0.00 0.00 0.00 30 1009.9
20260905233033 93 208 3.0 11.0 0.00 0.00 0.00 29 1009.9
20260905231530 94 271 3.0 9.0 0.00 0.00 0.00 28 1009.9
20260905230028 94 303 5.0 12.0 0.00 0.00 0.00 27 1010.1
20260905224527 93 222 5.0 12.0 0.00 0.00 0.00 26 1010.2
20260905223026 94 234 3.0 9.0 0.00 0.00 0.00 24 1010.3
20260905221524 95 242 4.0 9.0 0.00 0.00 0.00 23 1010.4
20260905220022 95 284 3.0 10.0 0.00 0.00 0.00 24 1010.6
20260905214519 94 131 0.0 5.0 0.00 0.00 0.00 23 1010.8
20260905213018 94 277 2.0 7.0 0.00 0.00 0.00 22 1011.0
20260905211518 93 242 4.0 8.0 0.00 0.00 0.00 22 1011.1
20260905210016 94 160 2.0 8.0 0.00 0.00 0.00 22 1011.1
20260905204514 92 295 2.0 9.0 0.00 0.00 0.00 24 1011.2
20260905203013 92 245 2.0 7.0 0.00 0.00 0.00 23 1011.4
20260905201511 92 297 2.0 7.0 0.00 0.00 0.00 23 1011.7
20260905200006 92 270 1.0 8.0 0.00 0.00 0.00 23 1011.9
20260905194505 90 219 3.0 7.0 0.00 0.00 0.00 25 1012.0
20260905193008 90 248 0.0 6.0 0.00 0.00 0.00 26 1012.3
20260905191505 89 25 2.0 9.0 0.00 0.00 0.00 26 1012.5
20260905190002 91 276 1.0 7.0 0.00 0.00 0.00 26 1012.7
20260905184619 90 113 0.0 4.0 0.00 0.00 0.00 27 1012.8
20260905183101 87 302 2.0 6.0 0.00 0.00 0.00 29 1013.0
20260905181559 86 102 2.0 4.0 0.00 0.00 0.00 27 1013.0
20260905180055 86 245 1.0 2.0 0.00 0.00 0.00 28 1013.1
20260905174552 85 235 1.0 2.0 0.00 0.00 0.00 29 1013.1
20260905173047 83 208 1.0 3.0 0.00 0.00 0.00 32 1013.0
20260905171545 81 20 1.0 3.0 0.00 0.00 0.00 33 1013.1
20260905170046 80 297 0.0 2.0 0.00 0.00 0.00 34 1013.2
20260905164540 79 108 0.0 2.0 0.00 0.00 0.00 37 1013.2
20260905163036 77 125 0.0 2.0 0.00 0.00 0.00 39 1013.2
20260905161531 75 231 1.0 3.0 0.00 0.00 0.00 48 1013.1
20260905160030 73 127 1.0 3.0 0.00 0.00 0.00 51 1013.1
20260905154529 71 124 0.0 3.0 0.00 0.00 0.00 58 1013.1
20260905153022 70 139 1.0 3.0 0.00 0.00 0.00 66 1013.0
20260905151520 69 195 0.0 2.0 0.00 0.00 0.00 65 1012.9
20260905150015 67 204 0.0 3.0 0.00 0.00 0.00 66 1013.0
20260905144512 66 311 0.0 2.0 0.00 0.00 0.00 67 1012.7
20260905143011 65 310 0.0 0.0 0.00 0.00 0.00 71 1012.7
20260905141508 62 310 0.0 0.0 0.00 0.00 0.00 75 1012.6
20260905140006 59 311 0.0 0.0 0.00 0.00 0.00 86 1012.5
20260905134505 57 311 0.0 0.0 0.00 0.00 0.00 90 1012.3
20260905133002 58 310 0.0 0.0 0.00 0.00 0.00 90 1012.2
20260905131606 58 310 0.0 0.0 0.00 0.00 0.00 90 1012.2
20260905130159 58 310 0.0 0.0 0.00 0.00 0.00 90 1012.0
20260905124557 59 310 0.0 0.0 0.00 0.00 0.00 89 1012.0
20260905123058 59 310 0.0 0.0 0.00 0.00 0.00 88 1011.9
20260905121555 60 311 0.0 0.0 0.00 0.00 0.00 89 1011.9
20260905120051 61 310 0.0 0.0 0.00 0.00 0.00 88 1011.9
20260905114549 61 310 0.0 0.0 0.00 0.00 0.00 87 1012.0
20260905113051 61 311 0.0 0.0 0.00 0.00 0.00 88 1011.9
20260905111635 61 311 0.0 0.0 0.00 0.00 0.00 88 1011.9
20260905110047 61 310 0.0 0.0 0.00 0.00 0.00 86 1012.0
20260905104543 62 310 0.0 0.0 0.00 0.00 0.00 86 1012.1
20260905103043 62 311 0.0 0.0 0.00 0.00 0.00 85 1012.0
20260905101550 62 311 0.0 0.0 0.00 0.00 0.00 86 1012.0
20260905100047 62 311 0.0 0.0 0.00 0.00 0.00 85 1012.1
20260905094540 62 311 0.0 0.0 0.00 0.00 0.00 85 1012.0
20260905093038 62 310 0.0 0.0 0.00 0.00 0.00 83 1012.1
20260905091537 63 311 0.0 0.0 0.00 0.00 0.00 83 1012.1
20260905090035 63 311 0.0 0.0 0.00 0.00 0.00 83 1012.2
20260905084537 64 310 0.0 0.0 0.00 0.00 0.00 82 1012.2
20260905083032 64 310 0.0 0.0 0.00 0.00 0.00 81 1012.3
20260905081525 65 310 0.0 0.0 0.00 0.00 0.00 79 1012.5
20260905080036 65 311 0.0 0.0 0.00 0.00 0.00 80 1012.4
20260905074524 65 311 0.0 0.0 0.00 0.00 0.00 78 1012.5
20260905073022 65 311 0.0 0.0 0.00 0.00 0.00 79 1012.4
20260905071523 66 311 0.0 0.0 0.00 0.00 0.00 78 1012.4
20260905070018 66 311 0.0 0.0 0.00 0.00 0.00 76 1012.2